This is the latest recevied weather packets stored in our database for station/object HB9Y1. If no packets are shown the sender has not sent any weather packets the latest 10 day(s).
| Time | Temp. | Humidity | Pressure | Rain* | Wind** | Luminosity | Snow |
|---|---|---|---|---|---|---|---|
| 1777727603 | 14.44° C | 56% | 1021.1 hPa | 0 mm | - | 725 W/m² | - |
| 1777726403 | 14.44° C | 56% | 1021.2 hPa | 0 mm | - | 738 W/m² | - |
| 1777723405 | 13.89° C | 57% | 1021.7 hPa | 0 mm | - | 707 W/m² | - |
| 1777719203 | 13.89° C | 57% | 1021.7 hPa | 0 mm | - | 681 W/m² | - |
| 1777717411 | 14.44° C | 54% | 1022.1 hPa | 0 mm | - | 677 W/m² | - |
| 1777715597 | 13.89° C | 52% | 1022.1 hPa | 0 mm | - | 649 W/m² | - |
| 1777713203 | 13.89° C | 56% | 1022.5 hPa | 0 mm | - | 560 W/m² | - |
| 1777712003 | 13.89° C | 52% | 1022.5 hPa | 0 mm | - | 495 W/m² | - |
| 1777703603 | 9.44° C | 54% | 1023.1 hPa | 0 mm | - | 157 W/m² | - |
| 1777698803 | 7.22° C | 65% | 1023.1 hPa | 0 mm | - | 35 W/m² | - |
| 1777698211 | 7.22° C | 65% | 1022.9 hPa | 0 mm | - | 29 W/m² | - |
| 1777697010 | 7.22° C | 64% | 1022.9 hPa | 0 mm | - | 19 W/m² | - |
| 1777695222 | 6.67° C | 64% | 1023.2 hPa | 0 mm | - | 2 W/m² | - |
| 1777694605 | 7.22° C | 63% | 1023 hPa | 0 mm | - | 0 W/m² | - |
| 1777691011 | 7.22° C | 61% | 1023.3 hPa | 0 mm | - | 0 W/m² | - |
| 1777689805 | 6.67° C | 61% | 1023.6 hPa | 0 mm | - | 0 W/m² | - |
| 1777687410 | 7.22° C | 61% | 1023.5 hPa | 0 mm | - | 0 W/m² | - |
| 1777686802 | 7.22° C | 61% | 1023.3 hPa | 0 mm | - | 0 W/m² | - |
| 1777685005 | 7.22° C | 58% | 1023.7 hPa | 0 mm | - | 0 W/m² | - |
| 1777683810 | 7.78° C | 62% | 1023.7 hPa | 0 mm | - | 0 W/m² | - |
| 1777681410 | 7.78° C | 60% | 1023.7 hPa | 0 mm | - | 0 W/m² | - |
| 1777680225 | 7.22° C | 57% | 1024.1 hPa | 0 mm | - | 0 W/m² | - |
| 1777678402 | 7.78° C | 59% | 1024.1 hPa | 0 mm | - | 0 W/m² | - |
| 1777675425 | 8.33° C | 58% | 1024.1 hPa | 0 mm | - | 0 W/m² | - |
| 1777668822 | 8.89° C | 64% | 1024.1 hPa | 0 mm | - | 0 W/m² | - |
* Rain latest hour (hover to see other rain measurements)
** Current wind speed in m/s (hover to see current wind gust speed)